Satellite: NOAA-12 Catalog number: 21263 Epoch time: 12341.29295047 Element set: 636 Inclination: 098.7162 deg RA of node: 002.0473 deg Eccentricity: 0.0014721 Arg of perigee: 061.8514 deg Mean anomaly: 298.4151 deg Mean motion: 14.25535095 rev/day Decay rate: 4.5e-07 rev/day^2 Epoch rev: 12107 Checksum: 270
Satellite: MET-3/5 Catalog number: 21655 Epoch time: 12340.83634477 Element set: 566 Inclination: 082.5569 deg RA of node: 030.9140 deg Eccentricity: 0.0012358 Arg of perigee: 250.3466 deg Mean anomaly: 109.6323 deg Mean motion: 13.17046533 rev/day Decay rate: -3.49e-06 rev/day^2 Epoch rev: 2448 Checksum: 295
Satellite: MET-2/21 Catalog number: 22782 Epoch time: 12341.32952962 Element set: 602 Inclination: 082.5484 deg RA of node: 255.9212 deg Eccentricity: 0.0023523 Arg of perigee: 033.3725 deg Mean anomaly: 326.8912 deg Mean motion: 13.83696156 rev/day Decay rate: 9.4e-07 rev/day^2 Epoch rev: 97297 Checksum: 315
Satellite: OKEAN-4 Catalog number: 23317 Epoch time: 12340.90877658 Element set: 75 Inclination: 082.5409 deg RA of node: 230.6187 deg Eccentricity: 0.0022057 Arg of perigee: 139.8688 deg Mean anomaly: 220.4161 deg Mean motion: 14.84145908 rev/day Decay rate: 5.52e-06 rev/day^2 Epoch rev: 98027 Checksum: 314
Satellite: NOAA-14 Catalog number: 23455 Epoch time: 12341.36425678 Element set: 117 Inclination: 098.8195 deg RA of node: 062.6182 deg Eccentricity: 0.0009176 Arg of perigee: 181.6630 deg Mean anomaly: 178.4514 deg Mean motion: 14.13884645 rev/day Decay rate: 3.0e-08 rev/day^2 Epoch rev: 92512 Checksum: 306
Satellite: NOAA-15 Catalog number: 25338 Epoch time: 12340.99959465 Element set: 514 Inclination: 098.7067 deg RA of node: 326.4427 deg Eccentricity: 0.0010407 Arg of perigee: 334.0012 deg Mean anomaly: 026.0659 deg Mean motion: 14.25154819 rev/day Decay rate: 1.33e-06 rev/day^2 Epoch rev: 75732 Checksum: 302
Satellite: RESURS Catalog number: 25394 Epoch time: 12341.02296452 Element set: 251 Inclination: 098.3373 deg RA of node: 320.3719 deg Eccentricity: 0.0002339 Arg of perigee: 085.7710 deg Mean anomaly: 274.3737 deg Mean motion: 14.24311857 rev/day Decay rate: 1.4e-07 rev/day^2 Epoch rev: 74886 Checksum: 292
Satellite: FENGYUN1 Catalog number: 25730 Epoch time: 12341.46934986 Element set: 756 Inclination: 098.8602 deg RA of node: 297.6070 deg Eccentricity: 0.0020491 Arg of perigee: 231.1271 deg Mean anomaly: 128.8070 deg Mean motion: 14.09906646 rev/day Decay rate: 1.021e-05 rev/day^2 Epoch rev: 69888 Checksum: 315
Satellite: OKEAN-0 Catalog number: 25860 Epoch time: 12340.90311235 Element set: 807 Inclination: 097.9605 deg RA of node: 300.2855 deg Eccentricity: 0.0001972 Arg of perigee: 065.5510 deg Mean anomaly: 294.5904 deg Mean motion: 14.74414683 rev/day Decay rate: 2.88e-06 rev/day^2 Epoch rev: 71987 Checksum: 305
Satellite: NOAA-16 Catalog number: 26536 Epoch time: 12341.06298282 Element set: 995 Inclination: 099.0718 deg RA of node: 025.6496 deg Eccentricity: 0.0009980 Arg of perigee: 323.0639 deg Mean anomaly: 036.9874 deg Mean motion: 14.12813525 rev/day Decay rate: -3.4e-07 rev/day^2 Epoch rev: 62930 Checksum: 326
Satellite: NOAA-17 Catalog number: 27453 Epoch time: 12341.39449183 Element set: 937 Inclination: 098.3225 deg RA of node: 359.6179 deg Eccentricity: 0.0011981 Arg of perigee: 016.1979 deg Mean anomaly: 343.9586 deg Mean motion: 14.24517307 rev/day Decay rate: 6.2e-07 rev/day^2 Epoch rev: 54327 Checksum: 334
Satellite: NOAA-18 Catalog number: 28654 Epoch time: 12341.36485412 Element set: 420 Inclination: 099.0720 deg RA of node: 301.0985 deg Eccentricity: 0.0014883 Arg of perigee: 032.9834 deg Mean anomaly: 327.2260 deg Mean motion: 14.11742882 rev/day Decay rate: 2.84e-06 rev/day^2 Epoch rev: 38885 Checksum: 306
Satellite: NOAA-19 Catalog number: 33591 Epoch time: 12341.34054019 Element set: 605 Inclination: 098.8823 deg RA of node: 279.1343 deg Eccentricity: 0.0013240 Arg of perigee: 254.9691 deg Mean anomaly: 105.0021 deg Mean motion: 14.11427426 rev/day Decay rate: -2.5e-07 rev/day^2 Epoch rev: 19729 Checksum: 280
/EX SB KEPS @ AMSAT $ORB12341.M Orbital Elements 12341.MISC
HR AMSAT ORBITAL ELEMENTS FOR MANNED AND MISCELLANEOUS SATELLITES FROM WA5QGD FORT WORTH,TX December 6, 2012 BID: ORB12341.M TO ALL RADIO AMATEURS BT
Satellite: HUBBLE Catalog number: 20580 Epoch time: 12341.52905794 Element set: 126 Inclination: 028.4686 deg RA of node: 095.2716 deg Eccentricity: 0.0003441 Arg of perigee: 101.3175 deg Mean anomaly: 258.7803 deg Mean motion: 15.03101363 rev/day Decay rate: 9.95e-06 rev/day^2 Epoch rev: 4067 Checksum: 275
Satellite: ISS Catalog number: 25544 Epoch time: 12342.03238571 Element set: 784 Inclination: 051.6490 deg RA of node: 342.8989 deg Eccentricity: 0.0016060 Arg of perigee: 013.0002 deg Mean anomaly: 055.4226 deg Mean motion: 15.51952440 rev/day Decay rate: 6.829e-05 rev/day^2 Epoch rev: 80486 Checksum: 286
Satellite: CO-58 Catalog number: 28895 Epoch time: 12340.60478582 Element set: 346 Inclination: 097.8888 deg RA of node: 199.1244 deg Eccentricity: 0.0017341 Arg of perigee: 335.1568 deg Mean anomaly: 024.8812 deg Mean motion: 14.60878807 rev/day Decay rate: 4.03e-06 rev/day^2 Epoch rev: 37868 Checksum: 356
Satellite: FALCON Catalog number: 30776 Epoch time: 12341.23653436 Element set: 501 Inclination: 035.4380 deg RA of node: 304.9034 deg Eccentricity: 0.0001234 Arg of perigee: 358.7486 deg Mean anomaly: 001.3229 deg Mean motion: 15.09053102 rev/day Decay rate: 3.077e-05 rev/day^2 Epoch rev: 31624 Checksum: 253
Satellite: MAST Catalog number: 31126 Epoch time: 12341.02766201 Element set: 625 Inclination: 097.8741 deg RA of node: 342.0956 deg Eccentricity: 0.0092640 Arg of perigee: 295.5131 deg Mean anomaly: 063.6505 deg Mean motion: 14.54371405 rev/day Decay rate: 4.19e-06 rev/day^2 Epoch rev: 29924 Checksum: 281
Satellite: CAPE1 Catalog number: 31130 Epoch time: 12340.51561859 Element set: 636 Inclination: 097.8861 deg RA of node: 337.9341 deg Eccentricity: 0.0100423 Arg of perigee: 311.5147 deg Mean anomaly: 047.7457 deg Mean motion: 14.53218176 rev/day Decay rate: 4.62e-06 rev/day^2 Epoch rev: 29865 Checksum: 298
Satellite: COMPASS Catalog number: 32787 Epoch time: 12340.69841933 Element set: 483 Inclination: 097.7789 deg RA of node: 038.1094 deg Eccentricity: 0.0014058 Arg of perigee: 216.3266 deg Mean anomaly: 143.6970 deg Mean motion: 14.84746458 rev/day Decay rate: 9.86e-06 rev/day^2 Epoch rev: 24925 Checksum: 346
Satellite: AAUSAT2 Catalog number: 32788 Epoch time: 12340.69494388 Element set: 474 Inclination: 097.7783 deg RA of node: 038.5915 deg Eccentricity: 0.0013905 Arg of perigee: 216.2269 deg Mean anomaly: 143.7932 deg Mean motion: 14.85137257 rev/day Decay rate: 1.388e-05 rev/day^2 Epoch rev: 24928 Checksum: 349
Satellite: DO-64 Catalog number: 32789 Epoch time: 12341.35073745 Element set: 495 Inclination: 097.7927 deg RA of node: 041.9840 deg Eccentricity: 0.0013643 Arg of perigee: 208.9029 deg Mean anomaly: 151.1431 deg Mean motion: 14.87167317 rev/day Decay rate: 3.021e-05 rev/day^2 Epoch rev: 24945 Checksum: 316
Satellite: CO-66 Catalog number: 32791 Epoch time: 12340.69499010 Element set: 472 Inclination: 097.7794 deg RA of node: 037.6938 deg Eccentricity: 0.0014586 Arg of perigee: 216.9988 deg Mean anomaly: 143.0196 deg Mean motion: 14.84028394 rev/day Decay rate: 1.003e-05 rev/day^2 Epoch rev: 24917 Checksum: 344
Satellite: RS-30 Catalog number: 32953 Epoch time: 12341.53409193 Element set: 388 Inclination: 082.5006 deg RA of node: 187.9710 deg Eccentricity: 0.0018367 Arg of perigee: 294.8789 deg Mean anomaly: 065.0388 deg Mean motion: 12.43030198 rev/day Decay rate: 1.0e-07 rev/day^2 Epoch rev: 20597 Checksum: 311
Satellite: PHARMSAT Catalog number: 35002 Epoch time: 12226.86484473 Element set: 78 Inclination: 040.4341 deg RA of node: 050.6671 deg Eccentricity: 0.0012079 Arg of perigee: 300.9773 deg Mean anomaly: 059.0492 deg Mean motion: 16.39309245 rev/day Decay rate: 7.728342e-02 rev/day^2 Epoch rev: 18355 Checksum: 302
Satellite: METEOR-M Catalog number: 35865 Epoch time: 12341.55507655 Element set: 29 Inclination: 098.6318 deg RA of node: 032.4405 deg Eccentricity: 0.0001721 Arg of perigee: 286.9424 deg Mean anomaly: 073.1567 deg Mean motion: 14.21876203 rev/day Decay rate: -1.7e-07 rev/day^2 Epoch rev: 16709 Checksum: 292
Satellite: RS-38 Catalog number: 35869 Epoch time: 12341.62020695 Element set: 996 Inclination: 098.6267 deg RA of node: 032.4675 deg Eccentricity: 0.0003844 Arg of perigee: 279.2151 deg Mean anomaly: 080.8596 deg Mean motion: 14.22103178 rev/day Decay rate: 2.6e-07 rev/day^2 Epoch rev: 16712 Checksum: 319
Satellite: JUGNU Catalog number: 37839 Epoch time: 12341.23871090 Element set: 285 Inclination: 019.9606 deg RA of node: 035.8792 deg Eccentricity: 0.0018720 Arg of perigee: 320.1217 deg Mean anomaly: 039.7816 deg Mean motion: 14.12111710 rev/day Decay rate: 6.20e-06 rev/day^2 Epoch rev: 5959 Checksum: 283
Satellite: SRMSAT Catalog number: 37841 Epoch time: 12341.24473927 Element set: 287 Inclination: 019.9702 deg RA of node: 044.0984 deg Eccentricity: 0.0012074 Arg of perigee: 276.9428 deg Mean anomaly: 082.9682 deg Mean motion: 14.10186498 rev/day Decay rate: 2.64e-06 rev/day^2 Epoch rev: 5950 Checksum: 315
Satellite: RAX-2 Catalog number: 37853 Epoch time: 12341.89605705 Element set: 364 Inclination: 101.7076 deg RA of node: 100.8531 deg Eccentricity: 0.0242142 Arg of perigee: 217.9127 deg Mean anomaly: 140.4803 deg Mean motion: 14.81658905 rev/day Decay rate: 4.904e-05 rev/day^2 Epoch rev: 5995 Checksum: 297
